DELTA 1 DEB (YO), 167

Orbit data source: Space-Track

DELTA 1 DEB (YO), 167 is space debris in LEO originally from a launch on Wed, 12 Jul 1961 UTC launched from the Air Force Eastern Test Range (AFETR). Debris objects in space refer to the collection of defunct objects orbiting the Earth. Examples of debris include non-operational satellites, rocket bodies, and fragments generated from explosions, collisions, or faulty payload assembly.

Loading next visibility...
Identifier
167, 1961-017D
Orbit
LEO
Last TLE update
1 day ago
Origin
Manufacturer
RCA/East Windsor
Mission
Spacecraft
Bus & Motor
Unknown
Mass
~1 kg wet, ~1 kg dry
Launch date (UTC)
1961-07-12 (64 years ago)
Launch vehicle
Unknown
Launch site
Air Force Eastern Test Range (AFETR)
Object type
Payload
Rocket body
Debris
Shape & HBR
Unknown
Radar Cross Section
Small (<0.1 m²)

Expand to show TLE details & history

TLE from 1 day ago
0 DELTA 1 DEB (YO)
1 00167U 61017D   25128.11110129  .00000205  00000-0  14810-3 0  9997
2 00167  47.8477  29.6614 0090778 252.3135 106.7822 14.23922317306945
Epoch: 2025-05-08T02:39Z
Definitive object data (Epoch: 2025-05-08T02:39:59.151Z)
Latitude
0.00001°
Longitude
123.47866°
Altitude
831.806 km
Speed
7.428 km/s
True Right ascension
01h 58m 38s
True Declination
0° 00' 00"
Sunlit
Object was in daylight at TLE epoch
Visualization TLE readout
Latitude
2.73219°
Longitude
-64.07595°
Altitude
801.103 km
Speed
7.46 km/s
Apparent Right ascension
11h 29m 37s
Apparent Declination
-52° 33' 26"
Sunlit
Object is in full shadow
Visualization observer readout
Local Sidereal Time
14:35:36
Azimuth
206.681° SW
Elevation
-10.863°
Doppler factor
1
Orbital elements
Apogee altitude
878.48 km
Perigee altitude
747.917 km
Semi-major axis
7,191.335 km
Eccentricity
0.0090778
Inclination
47.8477°
RAAN
29.6614°
Arg. of periapsis
252.3135°
True anomaly
107.77483°
Mean anomaly
106.7822°
Eccentric anomaly
107.27885°
Mean motion
3.55901 °/min
BSTAR
0.0001481
Orbital period
101.15 mins
Loading maneuver chart data...
Loading SW <> Apogee altitude chart data...
Loading historical data...
Loading historical data...
Loading historical data...
Loading historical data...
Loading historical data...
Loading historical data...
Loading historical data...
Other satellites on launch #17 in the year 1961 (1961-07-12 UTC)

DELTA 1 DEB (YO) Visibility forecast

Observer location: undefined°, undefined°

Span
Click to sort rows by Start time (UTC) header in descending order
Start Az.
Max El. time (UTC)
Max El. Az.
Max El.
End time (UTC)
End Az.
10 mins2025-05-09 19:13:46.276Z201.588° SSW2025-05-09 19:18:46.276Z138.055° SSE31.196°2025-05-09 19:23:46.276Z73.816° E
9 mins2025-05-09 21:00:46.276Z255.854° W2025-05-09 21:04:46.276Z339.862° N42.857°2025-05-09 21:09:46.276Z56.831° ENE
9 mins2025-05-09 22:47:46.276Z296.492° NW2025-05-09 22:51:46.276Z1.596° NNE32.251°2025-05-09 22:56:46.276Z62.915° ENE
9 mins2025-05-10 00:34:46.276Z310.245° NW2025-05-10 00:38:46.276Z24.439° NE36.912°2025-05-10 00:43:46.276Z89.899° E
9 mins2025-05-10 02:20:46.276Z292.889° NW2025-05-10 02:24:46.276Z221.28° SW42.433°2025-05-10 02:29:46.276Z136.097° SSE
4 mins2025-05-10 04:08:46.276Z246.909° WSW2025-05-10 04:09:46.276Z235.444° WSW14.441°2025-05-10 04:12:46.276Z202.26° SSW
|